[[{"header":{"parameterUnit":"m.s-1","parameterCategory":2,"la1":30.2991,"la2":30.254,"lo1":-89.0895,"lo2":-89.0444,"dy":0.0017,"dx":0.0017,"nx":28,"ny":28,"refTime":"2024-12-20T03:00:00:Z","depth":"0","parameterNumber":2,"parameterNumberName":"U-component_of_CURRENTS"},"data":[0,0,0,0,0,0,0,0,0,0,0,0,0,0,0,0,0,0,0,0,0,0,0,0,0,0,0,0,0,0,0,0,0,0,0,0,0,0,0,0,0,0,0,0,0,0,0,0,0,0,0,0,0,0,0,0,0,0,0.2049,0.2049,0,0.2106,0.2106,0.2107,0.212,0.212,0.212,0.212,0.2133,0.2134,0.2134,0,0,0,0,0,0,0,0,0,0,0,0,0,0.1971,0.1972,0.2049,0.205,0.205,0.2105,0.2106,0.2107,0.212,0.212,0.212,0.2119,0.2133,0.2134,0.2135,0,0,0,0,0,0,0,0,0,0,0,0,0,0.2013,0.1973,0.2049,0.2064,0.2067,0.2105,0.2106,0.2107,0.212,0.212,0.212,0.2119,0.2133,0.2134,0.2135,0.2149,0,0,0.2138,0.2138,0,0,0,0,0,0,0,0,0.2011,0.2016,0.2061,0.2063,0.2066,0.2106,0.2084,0.2119,0.2121,0.2099,0.212,0.2119,0.2121,0.2123,0.2134,0.215,0.215,0.2138,0.2138,0.2139,0.2139,0,0,0,0,0,0,0,0.2008,0.2013,0.207,0.2062,0.2065,0.2075,0.2081,0.2091,0.211,0.2101,0.2102,0.211,0.2122,0.2133,0.2134,0.2151,0.2138,0.2138,0.2139,0.2139,0.2206,0.2207,0,0,0,0,0,0,0.2002,0.2011,0.2068,0.2072,0.2038,0.2077,0.2083,0.2093,0.2111,0.2114,0.2111,0.2111,0.2132,0.2133,0.2135,0.2166,0.2139,0.2139,0.214,0.2204,0.2206,0.2207,0,0,0,0,0,0,0.2,0.2007,0.2066,0.2043,0.2052,0.2079,0.209,0.2094,0.2107,0.2119,0.2121,0.2119,0.2131,0.2133,0.2155,0.2166,0.214,0.2141,0.2203,0.2205,0.2206,0.222,0,0,0,0,0,0,0.1998,0.2006,0.2009,0.2043,0.2053,0.2091,0.2091,0.2096,0.2113,0.2114,0.2127,0.2128,0.2131,0.2153,0.2156,0.2167,0.2142,0.2202,0.2204,0.2206,0.2218,0.2222,0.2226,0,0,0,0,0,0.1995,0.2005,0.2009,0.2016,0.2057,0.2092,0.2098,0.2115,0.2114,0.2124,0.2138,0.2128,0.2169,0.2155,0.2158,0.2169,0.22,0.2203,0.2206,0.2217,0.2222,0.2226,0,0,0,0,0,0,0.1975,0.2008,0.2013,0.2033,0.206,0.2094,0.2106,0.2117,0.2137,0.2135,0.2142,0.2145,0.2167,0.2171,0.2156,0.2197,0.2184,0.2187,0.2191,0.2196,0.2199,0.2216,0.2142,0,0,0,0,0,0.1971,0.1985,0.2019,0.2035,0.2048,0.2076,0.2091,0.2104,0.2128,0.2136,0.2147,0.2162,0.2182,0.219,0.2204,0.2226,0.2253,0.2237,0.2241,0.2244,0.2261,0.2299,0.2308,0.2216,0.2216,0.2216,0,0,0.1967,0.1988,0.1995,0.2031,0.2052,0.2083,0.2084,0.211,0.2135,0.2134,0.2165,0.2173,0.2191,0.2217,0.2227,0.222,0.2289,0.2247,0.225,0.2266,0.2303,0.2312,0.232,0.2218,0.2217,0.2217,0,0,0.1975,0.1986,0.2004,0.2028,0.2062,0.2084,0.2092,0.2127,0.214,0.2171,0.2179,0.2202,0.2224,0.2247,0.226,0.2296,0.2306,0.2292,0.2325,0.2361,0.2369,0.2376,0.244,0.2453,0.2295,0.2295,0.2295,0,0.197,0.1999,0.2014,0.2043,0.2069,0.2086,0.2119,0.2139,0.2176,0.2196,0.2182,0.224,0.2244,0.2295,0.2307,0.2304,0.2334,0.2302,0.2366,0.2373,0.238,0.2444,0.2458,0.2296,0.2296,0.2296,0.2296,0,0.1997,0.2021,0.2036,0.2078,0.2105,0.2134,0.2168,0.2192,0.2205,0.2227,0.227,0.2284,0.2324,0.2322,0.2325,0.238,0.239,0.2362,0.2351,0.239,0.2455,0.2469,0.2298,0.2297,0.2297,0.2297,0,0,0.1992,0.2045,0.2051,0.2076,0.2127,0.2153,0.2198,0.2248,0.2283,0.2302,0.2356,0.2379,0.2385,0.2402,0.2405,0.2433,0.2506,0.242,0.2421,0.2479,0.2612,0.266,0.268,0.2481,0.2483,0.2485,0.2644,0,0.2013,0.2066,0.2091,0.2145,0.2178,0.2212,0.2253,0.2296,0.2328,0.238,0.24,0.2445,0.2416,0.2439,0.2462,0.2498,0.2541,0.2468,0.257,0.2574,0.2608,0.2697,0.2615,0.2752,0.2658,0.266,0.2662,0,0.2037,0.2072,0.2124,0.2185,0.2202,0.2232,0.2307,0.2345,0.2415,0.2443,0.249,0.2513,0.2579,0.2533,0.2625,0.2578,0.2606,0.2623,0.2629,0.2681,0.2649,0.2695,0.2782,0.2715,0.2683,0.2682,0.268,0,0.2031,0.2096,0.2137,0.2159,0.2228,0.2255,0.229,0.2359,0.2409,0.249,0.2543,0.2603,0.2655,0.2688,0.2742,0.2686,0.2847,0.2772,0.2849,0.2853,0.2811,0.2808,0.2841,0.2844,0.2844,0.2843,0.2843,0,0.2047,0.208,0.2132,0.2154,0.2202,0.2249,0.2311,0.2355,0.2445,0.252,0.2569,0.2654,0.2692,0.2787,0.28,0.2904,0.2903,0.2896,0.2907,0.2817,0.2813,0.2774,0.273,0.2849,0.2848,0.2847,0.2846,0,0.2035,0.2071,0.2115,0.2177,0.2198,0.2226,0.2315,0.2365,0.2449,0.2558,0.2596,0.2722,0.2852,0.2917,0.3009,0.3002,0.3012,0.3108,0.3023,0.3022,0.2998,0.2959,0.2931,0.284,0.3211,0.3213,0.3215,0,0.2036,0.2058,0.2114,0.2135,0.2158,0.2214,0.2256,0.2349,0.2415,0.2605,0.266,0.2835,0.2949,0.3133,0.3174,0.3261,0.3125,0.3224,0.3095,0.3033,0.2996,0.2845,0.2755,0.3049,0.305,0.305,0.305,0,0.2031,0.2043,0.2073,0.2111,0.2146,0.2198,0.2266,0.2322,0.2454,0.2554,0.2701,0.2815,0.3042,0.3114,0.3268,0.3292,0.3084,0.3236,0.3174,0.2901,0.2735,0.2638,0.293,0.3054,0.3053,0.3053,0.3053,0.3053,0.2013,0.2021,0.2049,0.2081,0.2121,0.2155,0.2173,0.2272,0.2362,0.2498,0.2656,0.2792,0.3001,0.3204,0.3224,0.322,0.3139,0.3117,0.309,0.2954,0.2813,0.3148,0.3277,0.3277,0.3278,0.3279,0.328,0,0.1972,0.1988,0.2022,0.2039,0.2053,0.2094,0.2163,0.2175,0.2243,0.2413,0.253,0.2742,0.2891,0.3034,0.3143,0.3069,0.2879,0.2998,0.273,0.2656,0.2973,0.2913,0.2965,0.2965,0.2965,0.2965,0.2965,0.2965,0.195,0.195,0.1966,0.1961,0.1977,0.1967,0.1982,0.2019,0.2113,0.2226,0.2345,0.2493,0.2795,0.3035,0.3032,0.2954,0.2688,0.262,0.2572,0.2777,0.2782,0.2788,0.2721,0.2732,0.2731,0.2125,0.2121,0.2118]},{"header":{"parameterUnit":"m.s-1","parameterCategory":2,"la1":30.2991,"la2":30.254,"lo1":-89.0895,"lo2":-89.0444,"dy":0.0017,"dx":0.0017,"nx":28,"ny":28,"refTime":"2024-12-20T03:00:00:Z","depth":"0","parameterNumber":3,"parameterNumberName":"V-component_of_CURRENTS"},"data":[0,0,0,0,0,0,0,0,0,0,0,0,0,0,0,0,0,0,0,0,0,0,0,0,0,0,0,0,0,0,0,0,0,0,0,0,0,0,0,0,0,0,0,0,0,0,0,0,0,0,0,0,0,0,0,0,0,0,-0.0401,-0.0402,0,-0.0482,-0.0483,-0.0484,-0.0551,-0.0552,-0.0552,-0.0553,-0.0753,-0.0757,-0.0762,0,0,0,0,0,0,0,0,0,0,0,0,0,-0.0353,-0.0353,-0.0401,-0.0402,-0.0403,-0.0482,-0.0483,-0.0485,-0.0551,-0.0552,-0.0553,-0.0553,-0.0751,-0.0757,-0.0762,0,0,0,0,0,0,0,0,0,0,0,0,0,-0.0398,-0.0353,-0.0401,-0.0445,-0.045,-0.0482,-0.0483,-0.0485,-0.0551,-0.0552,-0.0553,-0.0554,-0.0749,-0.0756,-0.0763,-0.0787,0,0,-0.0785,-0.0788,0,0,0,0,0,0,0,0,-0.0395,-0.04,-0.0438,-0.0442,-0.0448,-0.0507,-0.0539,-0.0592,-0.0551,-0.0513,-0.0553,-0.0554,-0.068,-0.0693,-0.0705,-0.0796,-0.0805,-0.0785,-0.0789,-0.0792,-0.0794,0,0,0,0,0,0,0,-0.0392,-0.0397,-0.0434,-0.0439,-0.0445,-0.0478,-0.0485,-0.0549,-0.0593,-0.0517,-0.0521,-0.0529,-0.0684,-0.0698,-0.0711,-0.0808,-0.0785,-0.0791,-0.0796,-0.0798,-0.0919,-0.0918,0,0,0,0,0,0,-0.0377,-0.0394,-0.0431,-0.0436,-0.0423,-0.0478,-0.0486,-0.0488,-0.059,-0.0605,-0.0528,-0.0532,-0.0686,-0.0702,-0.0718,-0.0745,-0.0792,-0.0799,-0.0803,-0.092,-0.0919,-0.0918,0,0,0,0,0,0,-0.0376,-0.038,-0.0428,-0.0417,-0.0425,-0.0477,-0.0479,-0.0489,-0.0502,-0.0597,-0.0615,-0.0532,-0.0687,-0.0708,-0.0751,-0.0754,-0.0802,-0.0809,-0.0921,-0.092,-0.0918,-0.0804,0,0,0,0,0,0,-0.0374,-0.0378,-0.0373,-0.0416,-0.0425,-0.0435,-0.0478,-0.0489,-0.0505,-0.0511,-0.0606,-0.0626,-0.0689,-0.074,-0.0758,-0.0764,-0.0814,-0.0923,-0.0921,-0.0919,-0.0809,-0.0798,-0.079,0,0,0,0,0,-0.0372,-0.0357,-0.0372,-0.0376,-0.0416,-0.0434,-0.0441,-0.0483,-0.0504,-0.05,-0.0554,-0.0623,-0.0742,-0.0744,-0.0766,-0.0774,-0.0924,-0.0921,-0.0919,-0.0813,-0.08,-0.079,0,0,0,0,0,0,-0.0331,-0.0363,-0.0381,-0.0376,-0.0398,-0.0445,-0.0446,-0.0473,-0.051,-0.0519,-0.0607,-0.0629,-0.0665,-0.0729,-0.073,-0.0801,-0.0846,-0.0848,-0.0758,-0.0747,-0.0738,-0.076,-0.082,0,0,0,0,0,-0.0318,-0.0317,-0.0352,-0.0347,-0.0354,-0.0397,-0.0409,-0.0435,-0.0475,-0.0492,-0.0555,-0.0621,-0.0673,-0.0714,-0.0766,-0.081,-0.0861,-0.0829,-0.0819,-0.0811,-0.0842,-0.0892,-0.089,-0.091,-0.091,-0.091,0,0,-0.0302,-0.0318,-0.032,-0.0338,-0.036,-0.0369,-0.0407,-0.0416,-0.0431,-0.051,-0.0543,-0.0586,-0.0671,-0.0707,-0.0733,-0.0765,-0.0821,-0.0808,-0.08,-0.0837,-0.0889,-0.0887,-0.0886,-0.0909,-0.0909,-0.0909,0,0,-0.0273,-0.0281,-0.0275,-0.0289,-0.0313,-0.0338,-0.0336,-0.0374,-0.0396,-0.0424,-0.0478,-0.0517,-0.0603,-0.066,-0.0702,-0.0675,-0.0757,-0.069,-0.068,-0.0725,-0.0725,-0.0725,-0.074,-0.0743,-0.0699,-0.0699,-0.0699,0,-0.0255,-0.0253,-0.0274,-0.0274,-0.0285,-0.032,-0.032,-0.0344,-0.0391,-0.0414,-0.0422,-0.053,-0.0587,-0.0653,-0.0639,-0.0658,-0.0687,-0.0713,-0.0713,-0.0715,-0.0717,-0.0734,-0.0739,-0.0693,-0.0694,-0.0694,-0.0695,0,-0.0228,-0.0228,-0.0221,-0.0237,-0.0248,-0.0248,-0.0284,-0.0297,-0.0324,-0.0361,-0.041,-0.0469,-0.0546,-0.0554,-0.0596,-0.0642,-0.0653,-0.068,-0.0742,-0.0708,-0.0727,-0.0734,-0.0685,-0.0687,-0.0689,-0.069,0,0,-0.019,-0.0202,-0.0201,-0.0202,-0.0229,-0.0233,-0.0252,-0.0287,-0.03,-0.0348,-0.0378,-0.0452,-0.0488,-0.0539,-0.0584,-0.063,-0.0639,-0.0662,-0.0667,-0.0676,-0.0718,-0.0661,-0.0663,-0.0662,-0.0664,-0.0665,-0.0707,0,-0.0167,-0.0154,-0.0173,-0.0166,-0.0162,-0.02,-0.0213,-0.0249,-0.0281,-0.0312,-0.039,-0.0425,-0.0482,-0.0497,-0.0556,-0.0618,-0.066,-0.0625,-0.0754,-0.0758,-0.071,-0.0671,-0.0626,-0.0656,-0.0714,-0.0716,-0.0716,0,-0.014,-0.0135,-0.0121,-0.0131,-0.0132,-0.0136,-0.0162,-0.0179,-0.024,-0.0264,-0.0333,-0.0382,-0.0464,-0.0494,-0.0627,-0.0599,-0.0662,-0.0709,-0.0712,-0.072,-0.0715,-0.071,-0.0667,-0.0829,-0.0728,-0.0727,-0.0726,0,-0.0101,-0.0101,-0.0086,-0.009,-0.0104,-0.0109,-0.0122,-0.0167,-0.0161,-0.0231,-0.0221,-0.0351,-0.0366,-0.05,-0.0595,-0.0616,-0.0715,-0.0755,-0.0767,-0.0763,-0.0787,-0.0781,-0.0925,-0.0854,-0.0853,-0.0853,-0.0853,0,-0.007,-0.0059,-0.0064,-0.0054,-0.0029,-0.0066,-0.0046,-0.0079,-0.0099,-0.0057,-0.0189,-0.0166,-0.0364,-0.0436,-0.0573,-0.0672,-0.0702,-0.0769,-0.0777,-0.0737,-0.0727,-0.0921,-0.1023,-0.0855,-0.0855,-0.0854,-0.0854,0,-0.0032,-0.0037,-0.0012,-0.0013,-0.0006,0.0011,0.0034,0.0061,0.0021,0.0076,0.0069,-0.0018,-0.0097,-0.0281,-0.0454,-0.059,-0.0798,-0.0751,-0.0669,-0.0667,-0.0842,-0.0937,-0.1108,-0.1173,-0.0795,-0.0794,-0.0793,0,-0.0012,0.0006,0.0036,0.0076,0.0082,0.0109,0.015,0.0125,0.0181,0.0199,0.0255,0.0188,0.0199,-0.0053,-0.0305,-0.0534,-0.0717,-0.0665,-0.0713,-0.0847,-0.0961,-0.1031,-0.108,-0.0686,-0.0684,-0.0683,-0.0681,0,0.0034,0.0047,0.0078,0.0165,0.022,0.0284,0.0346,0.0414,0.0431,0.0493,0.0588,0.0592,0.0381,0.0187,-0.0139,-0.0328,-0.0767,-0.0641,-0.0825,-0.0927,-0.0974,-0.1039,-0.0645,-0.0669,-0.067,-0.0671,-0.0672,-0.0672,0.0082,0.0123,0.0184,0.0271,0.035,0.0474,0.0552,0.0653,0.0777,0.0907,0.0883,0.0934,0.0597,0.0173,-0.0103,-0.0607,-0.064,-0.0777,-0.0889,-0.0953,-0.1004,-0.0556,-0.0558,-0.0558,-0.0559,-0.0559,-0.0559,0,0.0152,0.0209,0.0294,0.0413,0.0534,0.0548,0.0705,0.0805,0.0999,0.1124,0.1222,0.1102,0.0697,0.0212,-0.044,-0.0798,-0.0965,-0.1025,-0.1159,-0.1205,-0.0846,-0.0828,-0.0833,-0.0833,-0.0833,-0.0832,-0.0832,-0.0832,0.0197,0.0295,0.0345,0.0561,0.0656,0.0818,0.092,0.1075,0.1192,0.1368,0.1414,0.1415,0.1043,-0.0115,-0.0924,-0.113,-0.1423,-0.1453,-0.1613,-0.1414,-0.1401,-0.1389,-0.1398,-0.1522,-0.1523,-0.1912,-0.1917,-0.192]}],[{"header":{"parameterUnit":"m.s-1","parameterCategory":2,"la1":30.2991,"la2":30.254,"lo1":-89.0895,"lo2":-89.0444,"dy":0.0017,"dx":0.0017,"nx":28,"ny":28,"refTime":"2024-12-20T03:00:00:Z","depth":"2","parameterNumber":2,"parameterNumberName":"U-component_of_CURRENTS"},"data":[0,0,0,0,0,0,0,0,0,0,0,0,0,0,0,0,0,0,0,0,0,0,0,0,0,0,0,0,0,0,0,0,0,0,0,0,0,0,0,0,0,0,0,0,0,0,0,0,0,0,0,0,0,0,0,0,0,0,0.1728,0.1729,0,0.1803,0.1804,0.1805,0.1819,0.1819,0.1818,0.1817,0.1889,0.1891,0.1894,0,0,0,0,0,0,0,0,0,0,0,0,0,0.1646,0.1647,0.1728,0.1729,0.173,0.1803,0.1804,0.1805,0.1819,0.1819,0.1818,0.1817,0.1888,0.1891,0.1894,0,0,0,0,0,0,0,0,0,0,0,0,0,0.1698,0.1648,0.1728,0.1745,0.1747,0.1803,0.1804,0.1805,0.182,0.1819,0.1818,0.1817,0.1887,0.1891,0.1894,0.1939,0,0,0.1906,0.1908,0,0,0,0,0,0,0,0,0.1695,0.1701,0.1742,0.1744,0.1746,0.18,0.1801,0.1849,0.182,0.1793,0.1817,0.1816,0.1859,0.1865,0.1883,0.1942,0.1945,0.1906,0.1909,0.191,0.1912,0,0,0,0,0,0,0,0.1692,0.1699,0.1759,0.1743,0.1745,0.1766,0.1771,0.1811,0.1832,0.1795,0.1796,0.1803,0.186,0.1879,0.1885,0.1946,0.1906,0.191,0.1912,0.1914,0.2023,0.2023,0,0,0,0,0,0,0.1679,0.1695,0.1756,0.1761,0.1717,0.1768,0.1774,0.1785,0.1831,0.1837,0.1804,0.1804,0.1873,0.188,0.1887,0.1928,0.191,0.1914,0.1916,0.2022,0.2023,0.2024,0,0,0,0,0,0,0.1677,0.1684,0.1753,0.1729,0.1738,0.177,0.1781,0.1787,0.1811,0.1838,0.1844,0.1824,0.1873,0.1882,0.1898,0.1931,0.1916,0.1919,0.2022,0.2022,0.2023,0.2019,0,0,0,0,0,0,0.1675,0.1683,0.1692,0.1728,0.1739,0.1784,0.1782,0.1789,0.1816,0.1817,0.1857,0.1862,0.1872,0.1892,0.1902,0.1936,0.1922,0.2021,0.2022,0.2023,0.2018,0.2019,0.202,0,0,0,0,0,0.1672,0.1683,0.1692,0.1699,0.1749,0.1785,0.1793,0.1812,0.1818,0.1831,0.1837,0.1861,0.1907,0.1895,0.1906,0.1943,0.202,0.2022,0.2023,0.2017,0.2019,0.202,0,0,0,0,0,0,0.1657,0.1687,0.1697,0.1719,0.1749,0.1786,0.1803,0.1821,0.1841,0.1838,0.1861,0.1866,0.1895,0.1917,0.1903,0.1977,0.1973,0.1976,0.1965,0.1966,0.1968,0.2001,0.1925,0,0,0,0,0,0.1657,0.1674,0.1706,0.1727,0.174,0.1777,0.1796,0.1809,0.183,0.184,0.1865,0.189,0.1913,0.1934,0.1955,0.1999,0.2032,0.2032,0.2033,0.2034,0.2068,0.2113,0.2121,0.2028,0.2028,0.2028,0,0,0.1657,0.1679,0.1688,0.1726,0.1752,0.178,0.1786,0.1815,0.1842,0.1845,0.1884,0.1893,0.1922,0.1954,0.1973,0.1977,0.2075,0.2036,0.2036,0.2071,0.2115,0.2124,0.2132,0.2029,0.2029,0.2029,0,0,0.1668,0.1686,0.1702,0.1729,0.1764,0.1787,0.1797,0.1835,0.1853,0.1885,0.1889,0.1912,0.1961,0.1983,0.2002,0.2031,0.2072,0.2043,0.209,0.213,0.2139,0.2147,0.219,0.2201,0.2053,0.2053,0.2053,0,0.1667,0.1697,0.1714,0.1742,0.1769,0.1791,0.1821,0.1847,0.1885,0.191,0.1895,0.1969,0.1982,0.2037,0.204,0.2038,0.2068,0.2077,0.2133,0.2141,0.215,0.2192,0.2205,0.2053,0.2053,0.2053,0.2053,0,0.1692,0.172,0.1735,0.1777,0.1805,0.1835,0.1867,0.1895,0.1918,0.1949,0.2,0.2009,0.2061,0.2064,0.2064,0.2136,0.2139,0.2119,0.2129,0.2159,0.2201,0.2215,0.2053,0.2053,0.2053,0.2053,0,0,0.1684,0.174,0.1747,0.1775,0.1827,0.1853,0.1898,0.1952,0.1997,0.2024,0.2088,0.2117,0.2133,0.2156,0.2158,0.2199,0.2263,0.2192,0.2194,0.2236,0.2365,0.2335,0.2347,0.225,0.2253,0.2255,0.2367,0,0.1703,0.1749,0.178,0.1837,0.1865,0.1907,0.1953,0.2002,0.2043,0.2104,0.2131,0.2186,0.2164,0.219,0.2225,0.2258,0.2303,0.2236,0.2332,0.2336,0.2305,0.2363,0.2179,0.2262,0.238,0.2383,0.2384,0,0.1721,0.175,0.1801,0.1872,0.1891,0.1929,0.2012,0.206,0.2142,0.2177,0.2235,0.2261,0.2333,0.2296,0.2392,0.2351,0.2373,0.239,0.2394,0.2387,0.2332,0.2254,0.2282,0.2408,0.2406,0.2404,0.2403,0,0.1703,0.177,0.1811,0.1836,0.1915,0.1952,0.1999,0.2081,0.2142,0.2232,0.2286,0.2357,0.2408,0.2448,0.249,0.245,0.2592,0.253,0.2528,0.2525,0.2404,0.2386,0.2608,0.2608,0.2608,0.2608,0.2607,0,0.1716,0.1749,0.1805,0.183,0.1889,0.1947,0.2031,0.2085,0.2188,0.2267,0.2324,0.2393,0.2452,0.253,0.2541,0.2597,0.2635,0.2571,0.2565,0.2394,0.2376,0.2527,0.2517,0.2612,0.2611,0.261,0.261,0,0.1695,0.1735,0.1782,0.1855,0.1883,0.1924,0.2043,0.2097,0.2201,0.2306,0.2343,0.2458,0.2547,0.2606,0.2689,0.267,0.2715,0.2721,0.2524,0.2493,0.2604,0.2591,0.2726,0.2726,0.2726,0.2726,0.2726,0,0.169,0.1713,0.1782,0.1809,0.1845,0.1919,0.1966,0.2083,0.2149,0.2335,0.2375,0.2514,0.2565,0.269,0.2704,0.2743,0.2755,0.259,0.2475,0.2643,0.2623,0.261,0.2597,0.2306,0.2302,0.2299,0.2297,0,0.1682,0.1705,0.1737,0.1782,0.1828,0.1891,0.1971,0.2021,0.2165,0.2248,0.2357,0.2422,0.2559,0.2521,0.2603,0.2589,0.2565,0.2535,0.2784,0.2302,0.2255,0.2232,0.2232,0.2273,0.2275,0.2277,0.2278,0.2279,0.1673,0.1679,0.1717,0.1759,0.1806,0.1844,0.1868,0.1948,0.2029,0.2127,0.2244,0.2279,0.2353,0.2366,0.2334,0.2327,0.2475,0.2361,0.2366,0.2374,0.2304,0.2259,0.2265,0.2268,0.227,0.2271,0.2273,0,0.1664,0.1671,0.1696,0.1736,0.1758,0.1803,0.1859,0.1851,0.1885,0.1985,0.2047,0.1935,0.1954,0.2027,0.1991,0.2021,0.196,0.1934,0.183,0.1859,0.1883,0.1782,0.1608,0.1605,0.1603,0.16,0,0,0.1666,0.1665,0.1664,0.168,0.1708,0.1697,0.1704,0.1685,0.1724,0.1688,0.1705,0.1858,0.1974,0.1749,0.1752,0.167,0.1735,0.1612,0.2156,0.2062,0.2082,0.2157,0.2039,0,0,0,0,0]},{"header":{"parameterUnit":"m.s-1","parameterCategory":2,"la1":30.2991,"la2":30.254,"lo1":-89.0895,"lo2":-89.0444,"dy":0.0017,"dx":0.0017,"nx":28,"ny":28,"refTime":"2024-12-20T03:00:00:Z","depth":"2","parameterNumber":3,"parameterNumberName":"V-component_of_CURRENTS"},"data":[0,0,0,0,0,0,0,0,0,0,0,0,0,0,0,0,0,0,0,0,0,0,0,0,0,0,0,0,0,0,0,0,0,0,0,0,0,0,0,0,0,0,0,0,0,0,0,0,0,0,0,0,0,0,0,0,0,0,-0.0032,-0.0033,0,-0.0109,-0.011,-0.0111,-0.0162,-0.0162,-0.0162,-0.0162,-0.037,-0.0375,-0.0381,0,0,0,0,0,0,0,0,0,0,0,0,0,0.0012,0.0012,-0.0032,-0.0033,-0.0033,-0.0109,-0.011,-0.0111,-0.0162,-0.0162,-0.0162,-0.0162,-0.0368,-0.0375,-0.0381,0,0,0,0,0,0,0,0,0,0,0,0,0,-0.0033,0.0012,-0.0032,-0.0065,-0.0069,-0.0108,-0.011,-0.0112,-0.0162,-0.0162,-0.0162,-0.0163,-0.0366,-0.0374,-0.0382,-0.0432,0,0,-0.0407,-0.0411,0,0,0,0,0,0,0,0,-0.003,-0.0035,-0.006,-0.0063,-0.0067,-0.0123,-0.017,-0.0224,-0.0162,-0.013,-0.0162,-0.0163,-0.0297,-0.0311,-0.0328,-0.0441,-0.045,-0.0408,-0.0413,-0.0416,-0.0419,0,0,0,0,0,0,0,-0.0027,-0.0032,-0.0066,-0.006,-0.0065,-0.0096,-0.0102,-0.0181,-0.0218,-0.0133,-0.0136,-0.0139,-0.0301,-0.032,-0.0334,-0.0453,-0.0408,-0.0415,-0.042,-0.0423,-0.0567,-0.0566,0,0,0,0,0,0,-0.0008,-0.0029,-0.0063,-0.0068,-0.0045,-0.0096,-0.0104,-0.0108,-0.0214,-0.0228,-0.0139,-0.0141,-0.0306,-0.0324,-0.0342,-0.0376,-0.0416,-0.0424,-0.0429,-0.0568,-0.0566,-0.0565,0,0,0,0,0,0,-0.0006,-0.001,-0.006,-0.0047,-0.0056,-0.0096,-0.0101,-0.0109,-0.0134,-0.0216,-0.0234,-0.0155,-0.0307,-0.033,-0.0363,-0.0386,-0.0428,-0.0435,-0.0569,-0.0567,-0.0566,-0.0465,0,0,0,0,0,0,-0.0005,-0.0009,-0.0009,-0.0046,-0.0055,-0.0075,-0.0101,-0.0111,-0.0133,-0.0137,-0.0236,-0.0255,-0.0309,-0.035,-0.0371,-0.0398,-0.0442,-0.0571,-0.0568,-0.0566,-0.0469,-0.046,-0.0451,0,0,0,0,0,-0.0003,0.0004,-0.0009,-0.0013,-0.0053,-0.0074,-0.0082,-0.0114,-0.0134,-0.0138,-0.0171,-0.0252,-0.0353,-0.0354,-0.038,-0.041,-0.0572,-0.0569,-0.0567,-0.0473,-0.0462,-0.0452,0,0,0,0,0,0,0.002,-0.0001,-0.0016,-0.0018,-0.004,-0.0081,-0.0087,-0.0114,-0.0147,-0.0151,-0.023,-0.025,-0.029,-0.0353,-0.0353,-0.044,-0.0481,-0.0483,-0.0401,-0.0391,-0.0382,-0.0399,-0.0448,0,0,0,0,0,0.0027,0.0026,-0.0001,-0.0005,-0.0011,-0.0053,-0.0068,-0.0088,-0.0118,-0.0134,-0.0195,-0.0255,-0.0301,-0.0343,-0.0393,-0.0447,-0.049,-0.0483,-0.0474,-0.0466,-0.0493,-0.0537,-0.0535,-0.0557,-0.0557,-0.0557,0,0,0.0034,0.0022,0.0021,0.0,-0.0022,-0.0028,-0.0063,-0.0077,-0.0085,-0.0155,-0.0183,-0.0226,-0.0301,-0.0338,-0.0367,-0.0397,-0.047,-0.0463,-0.0456,-0.0488,-0.0534,-0.0533,-0.0531,-0.0555,-0.0556,-0.0556,0,0,0.0055,0.0039,0.0048,0.0033,0.0013,-0.0009,-0.0011,-0.0048,-0.0066,-0.009,-0.013,-0.0169,-0.0261,-0.0304,-0.0342,-0.0321,-0.041,-0.0351,-0.0342,-0.0382,-0.0381,-0.0381,-0.0382,-0.0383,-0.036,-0.036,-0.0359,0,0.0065,0.0069,0.0046,0.005,0.0045,0.0002,0.001,-0.0016,-0.0057,-0.007,-0.0086,-0.0184,-0.0247,-0.0295,-0.0285,-0.0308,-0.0332,-0.0375,-0.0371,-0.0372,-0.0374,-0.0376,-0.0379,-0.0354,-0.0355,-0.0356,-0.0356,0,0.009,0.0092,0.0097,0.0089,0.0081,0.008,0.0052,0.0038,0.0009,-0.0024,-0.0066,-0.0125,-0.019,-0.0215,-0.0255,-0.0303,-0.0311,-0.034,-0.0399,-0.0366,-0.0369,-0.0373,-0.0347,-0.0349,-0.035,-0.0352,0,0,0.0119,0.0118,0.0118,0.0126,0.0104,0.0104,0.0096,0.0076,0.0071,0.0015,-0.0001,-0.0084,-0.0127,-0.0172,-0.0224,-0.0278,-0.0292,-0.0323,-0.0328,-0.0325,-0.0355,-0.0347,-0.0351,-0.0323,-0.0325,-0.0326,-0.0333,0,0.0146,0.0175,0.0159,0.0179,0.0194,0.016,0.0157,0.0132,0.0104,0.0079,0.0001,-0.0036,-0.0107,-0.0131,-0.0194,-0.0269,-0.0309,-0.0286,-0.039,-0.0393,-0.0391,-0.0359,-0.0343,-0.0349,-0.0338,-0.0339,-0.0339,0,0.0174,0.0195,0.0225,0.0238,0.024,0.0238,0.0237,0.0226,0.0178,0.0156,0.0096,0.0038,-0.0046,-0.0103,-0.0233,-0.0215,-0.0288,-0.0348,-0.0349,-0.0396,-0.0396,-0.0392,-0.0359,-0.0348,-0.0347,-0.0347,-0.0346,0,0.0219,0.0239,0.0269,0.027,0.0274,0.0278,0.0273,0.0245,0.0256,0.02,0.0205,0.0093,0.0058,-0.007,-0.02,-0.0221,-0.0329,-0.0361,-0.0415,-0.0413,-0.0453,-0.0452,-0.0456,-0.0456,-0.0456,-0.0456,-0.0456,0,0.0254,0.0278,0.0291,0.0306,0.0344,0.0324,0.0349,0.0331,0.0322,0.035,0.0242,0.0252,0.0058,-0.0023,-0.0164,-0.0292,-0.0296,-0.0418,-0.0426,-0.0409,-0.0405,-0.0464,-0.0465,-0.0456,-0.0456,-0.0456,-0.0456,0,0.029,0.0295,0.0334,0.0353,0.0363,0.0385,0.0414,0.0445,0.0418,0.0458,0.0447,0.0372,0.0265,0.0091,-0.0091,-0.0216,-0.0357,-0.04,-0.0346,-0.035,-0.0419,-0.0414,-0.0464,-0.0464,-0.0464,-0.0464,-0.0464,0,0.0309,0.0332,0.0376,0.041,0.0417,0.0452,0.0492,0.049,0.0542,0.0548,0.0591,0.0499,0.0454,0.0203,-0.0042,-0.0265,-0.0313,-0.0387,-0.0445,-0.0422,-0.0426,-0.0421,-0.0417,-0.043,-0.043,-0.043,-0.043,0,0.0347,0.0356,0.0395,0.0474,0.0522,0.0586,0.0646,0.0706,0.0723,0.0755,0.0796,0.0752,0.052,0.0289,-0.0018,-0.0177,-0.036,-0.0389,-0.0389,-0.0431,-0.0393,-0.0395,-0.0392,-0.0428,-0.0428,-0.0428,-0.0428,-0.0428,0.0373,0.0411,0.0466,0.0541,0.0612,0.0715,0.0781,0.0858,0.0939,0.0992,0.0952,0.089,0.0623,0.0226,-0.0039,-0.0321,-0.0324,-0.0436,-0.0436,-0.0437,-0.0432,-0.0397,-0.0429,-0.0429,-0.0429,-0.0429,-0.0429,0,0.0408,0.0457,0.0535,0.0632,0.0733,0.0758,0.089,0.0954,0.1062,0.1094,0.1095,0.0846,0.0581,0.0286,-0.0127,-0.0379,-0.0417,-0.0456,-0.0453,-0.0452,-0.0453,-0.045,-0.0451,-0.0452,-0.0452,-0.0453,0,0,0.0427,0.0506,0.0554,0.0719,0.08,0.0935,0.1016,0.1099,0.1148,0.1164,0.1127,0.1028,0.0673,0.0375,0.0026,-0.0206,-0.0272,-0.0257,-0.0215,-0.017,-0.0167,-0.0419,-0.0412,0,0,0,0,0]}],[{"header":{"parameterUnit":"m.s-1","parameterCategory":2,"la1":30.2991,"la2":30.254,"lo1":-89.0895,"lo2":-89.0444,"dy":0.0017,"dx":0.0017,"nx":28,"ny":28,"refTime":"2024-12-20T03:00:00:Z","depth":"4","parameterNumber":2,"parameterNumberName":"U-component_of_CURRENTS"},"data":[0,0,0,0,0,0,0,0,0,0,0,0,0,0,0,0,0,0,0,0,0,0,0,0,0,0,0,0,0,0,0,0,0,0,0,0,0,0,0,0,0,0,0,0,0,0,0,0,0,0,0,0,0,0,0,0,0,0,0.0955,0.0955,0,0.0999,0.1,0.1,0.1048,0.1049,0.105,0.105,0.1061,0.106,0.106,0,0,0,0,0,0,0,0,0,0,0,0,0,0.0882,0.0883,0.0955,0.0955,0.0956,0.0999,0.1,0.1,0.1048,0.1049,0.105,0.1051,0.1061,0.1061,0.106,0,0,0,0,0,0,0,0,0,0,0,0,0,0.0918,0.0884,0.0955,0.0986,0.0989,0.0999,0.1,0.1,0.1048,0.1049,0.105,0.1051,0.1061,0.1061,0.106,0.1034,0,0,0.1058,0.1058,0,0,0,0,0,0,0,0,0.0916,0.0921,0.098,0.0984,0.0987,0.102,0.0978,0.101,0.1048,0.1025,0.105,0.1052,0.1044,0.1044,0.105,0.1034,0.1035,0.1058,0.1058,0.1057,0.1057,0,0,0,0,0,0,0,0.0914,0.0919,0.0972,0.0981,0.0985,0.0987,0.0994,0.0984,0.1026,0.1027,0.1031,0.1036,0.1045,0.105,0.105,0.1035,0.1058,0.1057,0.1057,0.1057,0.1101,0.1103,0,0,0,0,0,0,0.091,0.0917,0.097,0.0973,0.0954,0.0988,0.0995,0.1008,0.1027,0.1032,0.1035,0.1038,0.1051,0.1051,0.1051,0.1107,0.1057,0.1057,0.1056,0.11,0.1101,0.1103,0,0,0,0,0,0,0.0908,0.0914,0.0969,0.0946,0.0953,0.0988,0.1002,0.1008,0.1045,0.1034,0.1038,0.1069,0.1052,0.1052,0.1088,0.1104,0.1056,0.1056,0.1098,0.11,0.1102,0.1163,0,0,0,0,0,0,0.0906,0.0914,0.0932,0.0946,0.0954,0.0994,0.1001,0.1008,0.1045,0.105,0.1064,0.1064,0.1053,0.1089,0.1087,0.1103,0.1055,0.1096,0.1099,0.1102,0.1159,0.1167,0.1174,0,0,0,0,0,0.0903,0.0922,0.0933,0.094,0.0975,0.0995,0.1,0.1027,0.1046,0.1064,0.109,0.1066,0.1106,0.109,0.1087,0.1103,0.1094,0.1098,0.1101,0.1156,0.1166,0.1174,0,0,0,0,0,0,0.0901,0.0929,0.0941,0.0968,0.0989,0.1004,0.1027,0.1043,0.1078,0.1093,0.1087,0.109,0.1127,0.1111,0.1094,0.1127,0.1094,0.1097,0.1137,0.1146,0.1153,0.1158,0.1055,0,0,0,0,0,0.0907,0.0929,0.0952,0.0975,0.0991,0.1015,0.1031,0.1049,0.1074,0.1092,0.1104,0.1118,0.1132,0.1139,0.1145,0.116,0.1163,0.1169,0.1176,0.1183,0.1187,0.1226,0.1237,0.1115,0.1115,0.1115,0,0,0.0911,0.0929,0.0943,0.0976,0.0998,0.102,0.1029,0.1063,0.1084,0.1084,0.113,0.1146,0.1145,0.1172,0.1185,0.1164,0.1221,0.1187,0.1192,0.1193,0.1231,0.1243,0.1253,0.1117,0.1117,0.1116,0,0,0.0918,0.0951,0.097,0.0992,0.1028,0.1042,0.1059,0.1093,0.1117,0.1154,0.1167,0.1203,0.1215,0.1224,0.1226,0.1276,0.1264,0.1279,0.1314,0.1353,0.1363,0.1372,0.1397,0.1408,0.1278,0.1278,0.1278,0,0.0919,0.0948,0.0978,0.1001,0.1022,0.1057,0.1079,0.1104,0.1145,0.1171,0.1177,0.1233,0.1235,0.1269,0.1297,0.1291,0.1315,0.1278,0.1363,0.1372,0.138,0.1403,0.1414,0.1281,0.1281,0.128,0.128,0,0.0937,0.0966,0.0982,0.1023,0.105,0.1077,0.1112,0.1152,0.1187,0.121,0.1267,0.1282,0.1319,0.1323,0.1328,0.1387,0.1387,0.1372,0.1339,0.1396,0.1417,0.1427,0.1286,0.1285,0.1284,0.1283,0,0,0.0915,0.0979,0.0986,0.1006,0.1065,0.1082,0.1135,0.1184,0.1228,0.1268,0.1323,0.1355,0.1384,0.1391,0.1401,0.1433,0.1516,0.144,0.1441,0.1462,0.161,0.1528,0.1531,0.153,0.1532,0.1534,0.1603,0,0.0917,0.0956,0.0991,0.103,0.1056,0.1109,0.1151,0.1205,0.1259,0.1325,0.1355,0.1411,0.1401,0.1439,0.1472,0.1518,0.1547,0.1499,0.1553,0.1554,0.1472,0.1541,0.1541,0.161,0.1613,0.1614,0.1615,0,0.0918,0.0946,0.0986,0.1039,0.1057,0.1097,0.1183,0.1212,0.1311,0.1369,0.1436,0.1471,0.1543,0.1522,0.1608,0.1588,0.1609,0.1624,0.1627,0.1534,0.1491,0.154,0.1634,0.1633,0.1631,0.163,0.1629,0,0.0881,0.0935,0.0966,0.0986,0.1059,0.1105,0.1146,0.1241,0.1283,0.1408,0.1475,0.155,0.161,0.165,0.1695,0.1673,0.1781,0.1744,0.1676,0.167,0.1694,0.1684,0.1794,0.1794,0.1793,0.1793,0.1793,0,0.0858,0.0881,0.0962,0.098,0.1032,0.1086,0.1151,0.1226,0.1331,0.1394,0.1492,0.1562,0.1654,0.172,0.1735,0.1749,0.1814,0.1697,0.1689,0.1718,0.171,0.1702,0.169,0.1796,0.1795,0.1795,0.1794,0,0.081,0.0859,0.0897,0.0984,0.1018,0.1053,0.1151,0.1199,0.1314,0.1408,0.1457,0.1608,0.1706,0.1763,0.1847,0.1795,0.1814,0.1794,0.1836,0.1827,0.1662,0.1653,0.1721,0.1719,0.1717,0.1716,0.1714,0,0.0784,0.0802,0.0893,0.0925,0.0976,0.1036,0.1088,0.1196,0.1255,0.1416,0.1466,0.1607,0.1691,0.1742,0.1811,0.1837,0.1807,0.1797,0.1711,0.1673,0.1659,0.1653,0.1647,0.1711,0.1711,0.171,0.171,0,0.0736,0.0781,0.0819,0.089,0.0954,0.0998,0.1084,0.1122,0.1241,0.1351,0.1455,0.1516,0.1626,0.1696,0.1741,0.1745,0.1796,0.1776,0.1779,0.1698,0.1662,0.1648,0.1644,0.1703,0.1704,0.1705,0.1705,0,0.0707,0.0725,0.0788,0.0845,0.0911,0.0958,0.0999,0.108,0.1143,0.132,0.1352,0.1497,0.1616,0.165,0.1687,0.1701,0.166,0.1584,0.1596,0.1604,0.1534,0.1469,0.1459,0,0,0,0,0,0.0668,0.069,0.0739,0.0797,0.0856,0.0902,0.1,0.1045,0.1162,0.1206,0.1274,0.1368,0.1449,0.1528,0.1518,0.1631,0.1663,0.1611,0.1579,0.1668,0.1675,0.1604,0,0,0,0,0,0,0.0641,0.0686,0.0719,0.0748,0.0776,0.084,0.0901,0.0981,0.1009,0.1132,0.1192,0.128,0.1387,0.1444,0.1491,0.1511,0.1462,0.1695,0.1691,0.1664,0.1671,0.1676,0.1606,0,0,0,0,0]},{"header":{"parameterUnit":"m.s-1","parameterCategory":2,"la1":30.2991,"la2":30.254,"lo1":-89.0895,"lo2":-89.0444,"dy":0.0017,"dx":0.0017,"nx":28,"ny":28,"refTime":"2024-12-20T03:00:00:Z","depth":"4","parameterNumber":3,"parameterNumberName":"V-component_of_CURRENTS"},"data":[0,0,0,0,0,0,0,0,0,0,0,0,0,0,0,0,0,0,0,0,0,0,0,0,0,0,0,0,0,0,0,0,0,0,0,0,0,0,0,0,0,0,0,0,0,0,0,0,0,0,0,0,0,0,0,0,0,0,0.0143,0.0142,0,0.0125,0.0125,0.0125,0.0114,0.0113,0.0113,0.0113,0.0134,0.0135,0.0136,0,0,0,0,0,0,0,0,0,0,0,0,0,0.0169,0.0168,0.0143,0.0142,0.0142,0.0125,0.0125,0.0125,0.0114,0.0113,0.0113,0.0113,0.0134,0.0135,0.0136,0,0,0,0,0,0,0,0,0,0,0,0,0,0.0156,0.0168,0.0143,0.0133,0.0132,0.0125,0.0125,0.0125,0.0114,0.0113,0.0113,0.0113,0.0134,0.0135,0.0136,0.0148,0,0,0.0139,0.014,0,0,0,0,0,0,0,0,0.0157,0.0155,0.0135,0.0134,0.0133,0.012,0.0142,0.0134,0.0114,0.0122,0.0113,0.0113,0.0132,0.0133,0.0132,0.0149,0.015,0.0139,0.014,0.014,0.0141,0,0,0,0,0,0,0,0.0158,0.0156,0.0137,0.0135,0.0133,0.0131,0.0129,0.014,0.0131,0.0121,0.012,0.0116,0.0132,0.0131,0.0133,0.015,0.0139,0.014,0.0141,0.0141,0.0113,0.0111,0,0,0,0,0,0,0.0157,0.0157,0.0138,0.0136,0.0143,0.013,0.0128,0.0125,0.013,0.0129,0.0116,0.0116,0.0129,0.0131,0.0133,0.013,0.014,0.0141,0.0142,0.0114,0.0112,0.0111,0,0,0,0,0,0,0.0158,0.0156,0.0138,0.0145,0.0142,0.013,0.0127,0.0125,0.012,0.0125,0.0126,0.0113,0.0129,0.0132,0.0119,0.0131,0.0142,0.0143,0.0116,0.0114,0.0112,0.0135,0,0,0,0,0,0,0.0159,0.0156,0.0156,0.0145,0.0142,0.0132,0.0127,0.0125,0.0118,0.0116,0.0123,0.0124,0.0129,0.0117,0.012,0.0133,0.0144,0.0118,0.0115,0.0112,0.0136,0.0133,0.0132,0,0,0,0,0,0.016,0.0162,0.0156,0.0154,0.0141,0.0132,0.013,0.0121,0.0118,0.0116,0.0103,0.0124,0.0102,0.0117,0.0121,0.0134,0.0119,0.0116,0.0112,0.0136,0.0134,0.0132,0,0,0,0,0,0,0.0171,0.016,0.0154,0.0151,0.014,0.0129,0.0129,0.012,0.011,0.011,0.011,0.0111,0.01,0.0103,0.0119,0.0111,0.0113,0.011,0.013,0.0127,0.0125,0.0168,0.0145,0,0,0,0,0,0.0173,0.0174,0.0158,0.0157,0.0152,0.014,0.0136,0.0129,0.0117,0.0112,0.0112,0.0103,0.0091,0.0097,0.0086,0.0094,0.0086,0.0099,0.0097,0.0096,0.0128,0.0097,0.0096,0.01,0.01,0.01,0,0,0.0177,0.0172,0.0171,0.0159,0.0153,0.0157,0.0137,0.0132,0.0139,0.0118,0.0124,0.0097,0.0084,0.008,0.0078,0.0089,0.0083,0.0092,0.0091,0.0125,0.0094,0.0094,0.0094,0.0098,0.0099,0.0099,0,0,0.0193,0.0181,0.0189,0.0183,0.0173,0.0167,0.0164,0.0151,0.0147,0.014,0.0117,0.0094,0.0089,0.0081,0.0076,0.0058,0.0063,0.0048,0.0095,0.0063,0.0064,0.0064,0.0032,0.003,0.006,0.006,0.006,0,0.0199,0.0208,0.0189,0.0197,0.0202,0.0174,0.0188,0.018,0.0163,0.0166,0.0144,0.0114,0.0095,0.0097,0.0083,0.0061,0.0041,0.0111,0.0065,0.0065,0.0065,0.0032,0.003,0.0061,0.0061,0.0061,0.0061,0,0.0221,0.023,0.0235,0.0241,0.024,0.0246,0.0234,0.023,0.0217,0.021,0.0195,0.0154,0.0142,0.012,0.0102,0.0096,0.0078,0.0057,0.0082,0.0067,0.0032,0.0029,0.0062,0.0062,0.0062,0.0061,0,0,0.0234,0.025,0.0252,0.0272,0.0267,0.0273,0.0282,0.0287,0.0302,0.0269,0.0282,0.0239,0.0214,0.0205,0.0169,0.0148,0.0109,0.0114,0.0112,0.0103,0.0039,0.0002,-0.0005,0.008,0.008,0.008,0.0006,0,0.0261,0.0294,0.0295,0.0332,0.0349,0.0338,0.0355,0.0354,0.0342,0.0342,0.0301,0.0288,0.0248,0.0232,0.0205,0.0131,0.0106,0.0132,0.0038,0.0035,0.0022,-0.0008,0.008,0.0004,0.0003,0.0002,0.0002,0,0.0283,0.0307,0.0349,0.039,0.0398,0.0417,0.0443,0.0455,0.0446,0.0434,0.0416,0.0373,0.0338,0.0292,0.0198,0.0215,0.0141,0.0083,0.0078,0.0047,-0.0006,0.0023,-0.0004,-0.0003,-0.0003,-0.0003,-0.0002,0,0.0305,0.0347,0.0388,0.0399,0.0434,0.0459,0.048,0.0486,0.0503,0.0492,0.0483,0.044,0.0398,0.0319,0.0192,0.0193,0.0077,0.0056,-0.0041,-0.0045,0.0004,0.0005,-0.0003,-0.0003,-0.0003,-0.0002,-0.0002,0,0.0332,0.0365,0.0405,0.0429,0.0483,0.05,0.0551,0.0558,0.057,0.0582,0.0535,0.0512,0.0401,0.0312,0.0212,0.0072,0.0085,-0.0024,-0.0063,0.0009,0.0011,0.0001,0.0002,-0.0005,-0.0005,-0.0004,-0.0004,0,0.0343,0.0368,0.0419,0.0473,0.0494,0.0534,0.0593,0.0621,0.0629,0.0636,0.0629,0.0557,0.0437,0.0317,0.0167,0.0084,-0.0038,-0.0092,-0.0005,-0.004,-0.0139,-0.0136,-0.0191,-0.0193,-0.0195,-0.0196,-0.0197,0,0.0351,0.0377,0.0445,0.0477,0.0505,0.0566,0.0603,0.0642,0.0665,0.0651,0.0645,0.0545,0.0473,0.0248,0.0121,-0.0065,-0.0097,-0.0154,-0.0135,-0.0124,-0.0156,-0.0151,-0.0146,-0.02,-0.02,-0.02,-0.0201,0,0.0364,0.0386,0.0424,0.0486,0.0536,0.0594,0.0649,0.0669,0.0696,0.0703,0.0641,0.0528,0.0388,0.0229,0.0076,-0.0056,-0.0108,-0.017,-0.0168,-0.015,-0.0135,-0.0164,-0.0157,-0.0206,-0.0205,-0.0205,-0.0204,0,0.0366,0.0386,0.0431,0.0486,0.0545,0.0594,0.0634,0.0653,0.0678,0.0668,0.064,0.0505,0.0435,0.0231,0.0092,-0.0043,-0.0072,-0.0106,-0.0107,-0.0103,-0.0058,-0.0025,-0.0088,0,0,0,0,0,0.0362,0.038,0.0428,0.0482,0.054,0.0579,0.0645,0.0678,0.0703,0.0659,0.0655,0.0524,0.0315,0.0233,0.009,0.0058,-0.0099,-0.0114,-0.0139,-0.0236,-0.023,-0.0195,0,0,0,0,0,0,0.0357,0.0394,0.0416,0.0465,0.0502,0.0566,0.0612,0.0636,0.0619,0.0625,0.0519,0.048,0.0282,0.0388,0.0081,0.0042,0.0005,-0.0203,-0.0206,-0.0239,-0.0234,-0.0229,-0.0191,0,0,0,0,0]}]]